Location: Unspecified
(0.0000°N, 0.0000°E)
Time: 16:54:23
(UTC+00:00)

deb Delta 126 - Pass Details

Date: 15 February 2026
Orbit: 1458 x 1580 km, 101.9° (Epoch: 8 March)

Event Time Altitude Azimuth Distance (km) Brightness Sun altitude
Rises 02:06:19 0° 49° (NE) 4,754 ? -59.4°
Reaches altitude 10° 02:10:18 10° 65° (ENE) 3,776 ? -58.5°
Enters shadow 02:11:02 12° 69° (ENE) 3,625 ? -58.4°
Exits shadow 02:13:30 17° 86° (E) 3,237 ? -57.8°
Maximum altitude 02:16:11 20° 107° (ESE) 3,077 ? -57.2°
Drops below altitude 10° 02:22:01 10° 149° (SSE) 3,767 ? -55.8°
Sets 02:25:55 0° 165° (SSE) 4,739 ? -54.9°
